Date,TemperatureHighF,TemperatureAvgF,TemperatureLowF,DewpointHighF,DewpointAvgF,DewpointLowF,HumidityHigh,HumidityAvg,HumidityLow,PressureMaxIn,PressureMinIn,WindSpeedMaxMPH,WindSpeedAvgMPH,GustSpeedMaxMPH,PrecipitationSumIn
2014-1-1,50,40,32,22,19,16,59,44,27,29.53,29.53,0,-999,0,0.00
2014-1-2,46,38,30,22,18,13,61,45,27,29.53,29.53,0,-999,0,0.00
2014-1-3,47,38,30,22,19,16,56,45,31,29.53,29.53,0,-999,0,0.00
2014-1-4,54,42,34,22,17,2,59,38,22,29.53,29.53,0,-999,0,0.00
2014-1-5,39,34,28,8,3,-2,40,28,18,29.53,29.53,0,-999,0,0.00
2014-1-6,39,33,26,8,3,1,34,29,21,29.53,29.53,0,-999,0,0.00
2014-1-7,44,34,26,11,7,5,43,32,21,29.53,29.53,0,-999,0,0.00
2014-1-8,45,36,27,17,12,9,49,38,25,29.53,29.53,0,-999,0,0.00
2014-1-9,48,38,29,20,16,14,57,41,27,29.53,29.53,0,-985,0,0.00
2014-1-10,51,42,32,20,16,13,49,35,24,29.53,29.53,0,-999,0,0.00
2014-1-11,51,43,36,24,20,16,49,39,31,29.53,29.53,0,-999,0,0.00
2014-1-12,53,43,37,22,17,6,51,35,22,29.53,29.53,0,-999,0,0.00
2014-1-13,47,40,33,15,11,7,37,30,24,29.53,29.53,0,-999,0,0.00
2014-1-14,50,42,36,17,15,13,44,34,22,29.53,29.53,0,-999,0,0.00
2014-1-15,50,42,33,18,16,12,49,35,27,29.53,29.53,0,-999,0,0.00
2014-1-16,50,42,35,16,14,11,44,32,24,29.53,29.53,0,-999,0,0.00
2014-1-17,48,40,33,17,14,11,47,35,25,29.53,29.53,0,-999,0,0.00
2014-1-18,50,40,32,18,15,13,47,36,24,29.53,29.53,0,-999,0,0.00
2014-1-19,50,40,32,18,15,13,48,36,25,29.53,29.53,0,-999,0,0.00
2014-1-20,52,43,34,18,15,11,46,33,21,29.53,29.53,0,-999,0,0.00
2014-1-21,50,41,34,16,14,12,43,33,24,29.53,29.53,0,-999,0,0.00
2014-1-22,48,40,33,20,14,10,50,34,25,29.53,29.53,0,-971,0,0.00
2014-1-23,40,33,26,19,15,10,54,47,29,29.53,29.53,0,-999,0,0.00
2014-1-24,42,32,22,18,14,9,58,48,35,29.53,29.53,0,-999,0,0.00
2014-1-25,48,38,30,17,14,8,52,38,24,29.53,29.53,0,-999,0,0.00
2014-1-26,51,43,33,17,10,6,35,27,17,29.53,29.53,0,-999,0,0.00
2014-1-27,50,43,38,22,18,14,47,36,27,29.53,29.53,0,-999,0,0.00
2014-1-28,45,37,33,17,13,6,48,38,25,29.53,29.53,0,-999,0,0.00
2014-1-29,49,42,34,11,8,6,33,25,18,29.53,29.53,0,-789,0,0.00
2014-1-30,63,50,36,30,21,9,44,33,27,29.53,29.53,0,-999,0,0.00
2014-1-31,60,52,46,30,27,22,46,37,30,29.53,29.53,0,-999,0,0.00